Location: Ch�tillon
(48.8024°N, 2.2935°E)
Time: 21:58:10
(UTC+00:00)

CAS-4A - Pass Details

Date: 09 July 2022
Orbit: 521 x 536 km, 43.0° (Epoch: 16 August)

Event Time Altitude Azimuth Distance (km) Brightness Sun altitude
Exits shadow 01:58:28 21° 237° (WSW) 1,224 ? -13.8°
Maximum altitude 02:00:20 30° 192° (SSW) 943 ? -13.6°
Drops below altitude 10° 02:03:53 10° 130° (SE) 1,756 ? -13.3°
Sets 02:06:16 0° 120° (ESE) 2,646 ? -13.1°
